Weather History for KFLY - October, 2013

Change the Weather History Date:

Sunday, October 20, 2013

  Actual Average (KCOS) Record (KCOS)
Temperature  
Mean Temperature 40 °F 48 °F  
Max Temperature 49 °F 62 °F 79 °F (1878)
Min Temperature 30 °F 35 °F 17 °F (1916)
Degree Days  
Heating Degree Days 25 17  
Month to date heating degree days 276  
Since 1 July heating degree days 466  
Cooling Degree Days 0 0  
Month to date cooling degree days 0  
Year to date cooling degree days 454  
Moisture  
Dew Point 26 °F    
Average Humidity 61    
Maximum Humidity 96    
Minimum Humidity 31    
Precipitation  
Precipitation 0.00 in 0.03 in 0.40 in (1996)
Month to date precipitation 0.56  
Year to date precipitation 15.54  
Snow  
Snow 0.00 in 0.20 in 4.00 in (1996)
Month to date snowfall 1.6  
Since 1 July snowfall 1.8  
Since 1 September snowfall 1.8  
Snow Depth -    
Sea Level Pressure  
Sea Level Pressure 30.04 in    
Wind  
Wind Speed 10 mph (North)    
Max Wind Speed 17 mph    
Max Gust Speed 24 mph    
Visibility 10 miles    
Events Rain , Snow    
T = Trace of Precipitation, MM = Missing Value Source: NWS Daily Summary

Daily Weather History Graph

Daily Weather History Graph

Search for Another Location

Airport or City:

Trip Planner

Search our weather history database for the weather conditions in past years. The results will help you decide how hot, cold, wet, or windy it might be!

Date:

Astronomy

Oct. 20, 2013 Rise Set
Actual Time 7:13 AM MDT 6:12 PM MDT
Civil Twilight 6:46 AM MDT 6:39 PM MDT
Nautical Twilight 6:14 AM MDT 7:10 PM MDT
Astronomical Twilight 5:44 AM MDT 7:41 PM MDT
Moon 7:23 PM MDT (10/20) 8:52 AM MDT (10/20)
Length of Visible Light 11h 53m
Length of Day
10h 59m
Full, 97% of the Moon is Illuminated
Oct 20
Full
Oct 26
Last Quarter
Nov 3
New
Nov 9
First Quarter
Nov 17
Full

Hourly Weather History & Observations

Time (MDT) Temp. Windchill Dew Point Humidity Pressure Visibility Wind Dir Wind Speed Gust Speed Precip Events Conditions
12:14 AM 35.8 °F 28.8 °F 22.8 °F 59% 29.99 in 10.0 mi NW 9.2 mph - N/A   Clear
12:34 AM 35.6 °F 27.5 °F 24.4 °F 64% 29.99 in 10.0 mi NW 11.5 mph - N/A   Clear
12:54 AM 39.2 °F 37.0 °F 21.7 °F 50% 29.99 in 10.0 mi NNE 3.5 mph - N/A   Clear
1:13 AM 39.4 °F 32.7 °F 21.4 °F 49% 29.98 in 10.0 mi NW 10.4 mph - N/A   Clear
1:34 AM 42.3 °F 36.8 °F 19.8 °F 41% 29.98 in 10.0 mi NW 9.2 mph - N/A   Clear
1:54 AM 42.6 °F 39.0 °F 17.8 °F 37% 29.98 in 10.0 mi NNW 5.8 mph - N/A   Clear
2:14 AM 41.9 °F 36.3 °F 19.2 °F 40% 29.98 in 10.0 mi NNW 9.2 mph - N/A   Clear
2:34 AM 41.4 °F 35.7 °F 18.5 °F 40% 29.97 in 10.0 mi NW 9.2 mph - N/A   Clear
2:54 AM 40.3 °F 34.9 °F 18.5 °F 42% 29.97 in 10.0 mi NNW 8.1 mph - N/A   Clear
3:14 AM 39.9 °F 33.9 °F 18.1 °F 42% 29.97 in 10.0 mi NNW 9.2 mph - N/A   Clear
3:34 AM 41.2 °F 34.5 °F 17.2 °F 38% 29.97 in 10.0 mi NW 11.5 mph - N/A   Clear
3:54 AM 40.6 °F 34.3 °F 17.1 °F 39% 29.97 in 10.0 mi NW 10.4 mph - N/A   Clear
4:14 AM 42.1 °F 36.6 °F 16.0 °F 35% 29.97 in 10.0 mi NW 9.2 mph - N/A   Clear
4:34 AM 43.7 °F 38.6 °F 15.6 °F 32% 29.97 in 10.0 mi NNW 9.2 mph - N/A   Clear
4:54 AM 41.4 °F 35.7 °F 16.7 °F 37% 29.97 in 10.0 mi NNW 9.2 mph - N/A   Clear
5:13 AM 39.7 °F 31.9 °F 17.1 °F 40% 29.97 in 10.0 mi NW 13.8 mph - N/A   Clear
5:34 AM 37.6 °F 31.6 °F 18.0 °F 45% 29.97 in 10.0 mi NNW 8.1 mph - N/A   Clear
5:54 AM 39.6 °F 32.1 °F 17.4 °F 41% 29.97 in 10.0 mi NW 12.7 mph - N/A   Clear
6:14 AM 37.0 °F 31.0 °F 18.5 °F 47% 29.97 in 10.0 mi NW 8.1 mph - N/A   Clear
6:34 AM 36.0 °F 30.3 °F 19.2 °F 51% 29.98 in 10.0 mi NW 6.9 mph - N/A   Clear
6:53 AM 37.6 °F 29.6 °F 18.5 °F 46% 29.97 in 10.0 mi NNW 12.7 mph - N/A   Clear
7:14 AM 38.5 °F 31.6 °F 18.1 °F 44% 29.98 in 10.0 mi NNW 10.4 mph - N/A   Clear
7:34 AM 39.2 °F 32.5 °F 18.0 °F 42% 29.98 in 10.0 mi NNW 10.4 mph - N/A   Clear
7:54 AM 39.2 °F 33.6 °F 18.5 °F 43% 29.99 in 10.0 mi NNW 8.1 mph - N/A   Clear
8:14 AM 44.2 °F 41.8 °F 18.3 °F 35% 30.00 in 10.0 mi NNW 4.6 mph - N/A   Clear
8:34 AM 46.6 °F - 18.9 °F 33% 30.01 in 10.0 mi Calm Calm - N/A   Clear
8:54 AM 48.9 °F - 19.2 °F 31% 30.01 in 10.0 mi North 9.2 mph - N/A   Clear
9:14 AM 46.9 °F - 21.9 °F 37% 30.02 in 10.0 mi NE 11.5 mph 19.6 mph N/A   Clear
9:34 AM 45.7 °F 40.6 °F 23.0 °F 41% 30.02 in 10.0 mi NNE 10.4 mph - N/A   Clear
9:54 AM 47.5 °F - 25.5 °F 42% 30.02 in 10.0 mi NNE 12.7 mph 17.3 mph N/A   Clear
10:14 AM 46.0 °F 39.6 °F 24.6 °F 43% 30.03 in 10.0 mi NNE 15.0 mph - N/A   Clear
10:34 AM 45.5 °F 38.3 °F 25.5 °F 46% 30.03 in 10.0 mi NNE 17.3 mph 20.7 mph N/A   Clear
10:54 AM 47.1 °F - 26.2 °F 44% 30.03 in 10.0 mi NNE 15.0 mph 21.9 mph N/A   Clear
11:14 AM 46.4 °F 39.8 °F 27.7 °F 48% 30.03 in 10.0 mi NE 16.1 mph 20.7 mph N/A   Clear
11:34 AM 44.6 °F 37.8 °F 28.4 °F 53% 30.03 in 10.0 mi NNE 15.0 mph - N/A   Clear
11:54 AM 45.0 °F 38.9 °F 29.7 °F 55% 30.04 in 10.0 mi NNE 12.7 mph 19.6 mph N/A   Mostly Cloudy
12:14 PM 43.7 °F 36.6 °F 29.8 °F 58% 30.04 in 10.0 mi NE 15.0 mph - N/A   Scattered Clouds
12:34 PM 45.9 °F 39.7 °F 31.3 °F 57% 30.04 in 10.0 mi NNE 13.8 mph 18.4 mph N/A   Clear
12:54 PM 47.1 °F - 31.5 °F 55% 30.03 in 10.0 mi NNE 12.7 mph 21.9 mph N/A   Clear
1:14 PM 47.3 °F - 31.5 °F 54% 30.02 in 10.0 mi NNE 15.0 mph 19.6 mph N/A   Clear
1:34 PM 47.3 °F - 32.0 °F 55% 30.02 in 10.0 mi North 13.8 mph 21.9 mph N/A   Scattered Clouds
1:54 PM 46.8 °F - 32.2 °F 57% 30.02 in 10.0 mi NNE 13.8 mph 21.9 mph N/A   Scattered Clouds
2:14 PM 44.8 °F 38.3 °F 31.8 °F 60% 30.02 in 10.0 mi North 13.8 mph 18.4 mph N/A   Scattered Clouds
2:34 PM 43.7 °F 36.3 °F 31.5 °F 62% 30.02 in 10.0 mi NNE 16.1 mph 21.9 mph N/A   Scattered Clouds
2:54 PM 44.8 °F 38.3 °F 32.0 °F 61% 30.02 in 10.0 mi NNE 13.8 mph 19.6 mph N/A   Scattered Clouds
3:14 PM 45.3 °F 39.3 °F 32.0 °F 60% 30.02 in 10.0 mi North 12.7 mph - N/A   Scattered Clouds
3:34 PM 45.5 °F 39.2 °F 32.0 °F 59% 30.02 in 10.0 mi NNE 13.8 mph 17.3 mph N/A   Scattered Clouds
3:54 PM 44.6 °F 38.4 °F 31.8 °F 61% 30.02 in 10.0 mi NNE 12.7 mph 17.3 mph N/A   Clear
4:14 PM 42.8 °F 36.6 °F 31.6 °F 65% 30.03 in 10.0 mi North 11.5 mph - N/A   Mostly Cloudy
4:34 PM 41.9 °F 35.0 °F 32.0 °F 68% 30.04 in 10.0 mi NNE 12.7 mph 18.4 mph N/A   Overcast
4:54 PM 39.9 °F 32.1 °F 33.1 °F 77% 30.04 in 10.0 mi North 13.8 mph 20.7 mph N/A   Light Drizzle
5:14 PM 38.1 °F 29.1 °F 34.0 °F 85% 30.05 in 10.0 mi NNE 16.1 mph 20.7 mph N/A Rain Light Rain
5:34 PM 36.9 °F 29.1 °F 34.7 °F 92% 30.07 in 10.0 mi NNE 11.5 mph 24.2 mph N/A Rain Light Rain
5:54 PM 35.8 °F 27.3 °F 34.2 °F 94% 30.08 in 10.0 mi NNE 12.7 mph - N/A Rain Light Rain
6:14 PM 35.1 °F 26.9 °F 34.0 °F 96% 30.08 in 7.0 mi North 11.5 mph - N/A Rain Light Rain
6:34 PM 34.9 °F 26.2 °F 33.8 °F 96% 30.09 in 10.0 mi NNE 12.7 mph 18.4 mph N/A Rain Light Rain
6:54 PM 34.7 °F 25.1 °F 33.3 °F 94% 30.10 in 10.0 mi North 15.0 mph 21.9 mph N/A Rain Light Rain
7:14 PM 34.0 °F 24.2 °F 32.5 °F 94% 30.12 in 7.0 mi North 15.0 mph 21.9 mph N/A Snow Light Snow
7:34 PM 33.3 °F 23.7 °F 32.0 °F 95% 30.12 in 2.5 mi NNE 13.8 mph 18.4 mph N/A Snow Light Snow
7:54 PM 33.1 °F 24.4 °F 32.0 °F 96% 30.13 in 4.0 mi North 11.5 mph 17.3 mph N/A Snow Light Snow
8:14 PM 33.8 °F 29.6 °F 32.0 °F 93% 30.15 in 10.0 mi North 4.6 mph - N/A Snow Light Snow
8:34 PM 33.3 °F 27.1 °F 32.0 °F 95% 30.15 in 4.0 mi NNW 6.9 mph - N/A Snow Light Snow
8:54 PM 33.8 °F 27.7 °F 32.0 °F 93% 30.14 in 10.0 mi NNW 6.9 mph - N/A   Overcast
9:14 PM 33.8 °F 27.7 °F 31.8 °F 92% 30.14 in 10.0 mi North 6.9 mph - N/A   Overcast
9:34 PM 34.0 °F 27.2 °F 31.6 °F 91% 30.15 in 10.0 mi NW 8.1 mph - N/A   Overcast
9:54 PM 34.0 °F 27.2 °F 31.5 °F 90% 30.15 in 10.0 mi NNW 8.1 mph - N/A   Overcast
10:14 PM 33.8 °F 27.7 °F 31.1 °F 90% 30.15 in 10.0 mi NNW 6.9 mph - N/A   Overcast
10:34 PM 33.3 °F 27.9 °F 30.7 °F 90% 30.16 in 10.0 mi NNW 5.8 mph - N/A   Mostly Cloudy
10:54 PM 33.1 °F 26.9 °F 30.2 °F 89% 30.16 in 10.0 mi NNW 6.9 mph - N/A   Scattered Clouds
11:14 PM 32.9 °F 26.7 °F 30.2 °F 90% 30.16 in 10.0 mi NW 6.9 mph - N/A   Clear
11:34 PM 32.0 °F 26.4 °F 29.5 °F 90% 30.16 in 10.0 mi West 5.8 mph - N/A   Clear
11:54 PM 30.7 °F 26.0 °F 28.8 °F 92% 30.16 in 10.0 mi WNW 4.6 mph - N/A   Clear